This demonstration page uses our WeatherBlox Daily Observations layout. Learn more.

Left ArrowRight Arrow

44.8408, -93.29828

Hourly Observations for December 13, 2017

Temp ( °F °C ) Dew Point ( °F °C ) Humidity (%) Winds ( mph kmh ) Pressure ( in mb ) Visibility ( mi km ) Precip ( " mm )
12:53 am 00:53 Mostly Cloudy 26 -3.3 24 -4.4 92 92 SE 8 13 29.55 1001 10 16 0.00 0.00
1:53 am 01:53 Mostly Cloudy 28 -2.2 25 -3.9 88 88 SE 7 11 29.50 999 10 16 0.00 0.00
2:53 am 02:53 Cloudy 29 -1.7 26 -3.3 89 89 SE 8 13 29.44 997 10 16 0.00 0.00
3:53 am 03:53 Cloudy 28 -2.2 25 -3.9 88 88 SE 8 13 29.40 996 10 16 0.00 0.00
4:53 am 04:53 Cloudy 28 -2.2 25 -3.9 88 88 SE 6 9 29.37 995 10 16 0.00 0.00
5:53 am 05:53 Cloudy 30 -1.1 26 -3.3 85 85 NNW 5 7 29.39 995 10 16 0.00 0.00
6:53 am 06:53 Cloudy 27 -2.8 25 -3.9 92 92 N 8 13 29.39 995 10 16 0.00 0.00
7:53 am 07:53 Cloudy with Light Snow 28 -2.2 25 -3.9 88 88 N 10 17 29.43 997 1 2 0.00 0.03
8:03 am 08:03 Cloudy with Light Snow 27 -2.8 25 -3.9 92 92 NNW 13 20 29.47 998 1 2 0.00 0.03
8:24 am 08:24 Cloudy with Light Snow 26 -3.3 25 -3.9 96 96 NNW 10 17 29.50 999 7 11 0.01 0.25
8:34 am 08:34 Cloudy 26 -3.3 25 -3.9 96 96 NNW 14 22 29.50 999 9 14 0.01 0.25
8:53 am 08:53 Cloudy 26 -3.3 24 -4.4 92 92 NW 15 24 29.49 999 10 16 0.01 0.25
9:53 am 09:53 Cloudy 26 -3.3 24 -4.4 92 92 NNW 17 28 29.53 1000 10 16 0.00 0.00
10:53 am 10:53 Cloudy 27 -2.8 23 -5 85 85 NNW 20 31 29.57 1001 10 16 0.00 0.00
11:25 am 11:25 Cloudy 25 -3.9 20 -6.7 81 81 NNW 24 39 29.62 1003 10 16 0.00 0.00
11:53 am 11:53 Cloudy 25 -3.9 19 -7.2 78 78 NNW 21 33 29.61 1003 10 16 0.00 0.00
12:53 pm 12:53 Cloudy 24 -4.4 18 -7.8 77 77 NNW 21 33 29.64 1004 10 16 0.00 0.00
1:53 pm 13:53 Cloudy 25 -3.9 18 -7.8 75 75 NNW 15 24 29.66 1005 10 16 0.00 0.00
2:53 pm 14:53 Cloudy 24 -4.4 18 -7.8 77 77 NNW 20 31 29.71 1006 9 14 0.00 0.00
3:53 pm 15:53 Cloudy 24 -4.4 18 -7.8 77 77 NNW 16 26 29.75 1008 10 16 0.00 0.00
4:53 pm 16:53 Cloudy with Light Snow 24 -4.4 18 -7.8 77 77 NNW 18 30 29.80 1009 9 14 0.00 0.03
5:38 pm 17:38 Cloudy with Light Snow 24 -4.4 18 -7.8 77 77 NNW 14 22 29.85 1011 9 14 0.00 0.03
5:53 pm 17:53 Cloudy 24 -4.4 18 -7.8 77 77 NNW 16 26 29.85 1011 9 14 0.00 0.03
6:50 pm 18:50 Cloudy 23 -5 18 -8 80 80 NNW 14 22 29.97 1015 10 16 0.00 0.00
6:53 pm 18:53 Cloudy 23 -5 17 -8.3 78 78 NNW 13 20 29.91 1013 10 16 0.00 0.00
7:23 pm 19:23 Partly Cloudy 22 -5.6 16 -8.9 78 78 NNW 12 19 29.97 1015 10 16 0.00 0.00
7:53 pm 19:53 Mostly Clear 21 -6.1 16 -8.9 81 81 NNW 9 15 29.95 1014 10 16 0.00 0.00
8:53 pm 20:53 Mostly Clear 20 -6.7 15 -9.4 81 81 N 9 15 29.95 1014 10 16 0.00 0.00
9:53 pm 21:53 Mostly Clear 19 -7.2 15 -9.4 84 84 N 8 13 29.97 1015 10 16 0.00 0.00
10:53 pm 22:53 Partly Cloudy 18 -7.8 15 -9.4 88 88 NW 3 6 29.99 1016 10 16 0.00 0.00
11:53 pm 23:53 Mostly Cloudy 17 -8.3 14 -10 88 88 W 3 6 30.01 1016 9 14 0.00 0.00

Powered by AerisWeather